User: anonymous   Login
Location: Unspecified
(0.0000°N, 0.0000°E)
Time: 09:18:21
(UTC+00:00)
Language:

GONETS M 09 (M19) - Orbit

View from above orbital plane
View from above orbital plane
View from above satellite
View from above satellite

Ground track
Ground track

The orbit data is extracted from the following two-line orbital elements,

1 40062U 14036B   17268.86830502 +.00000010 +00000-0 +00000-0 0  9993
2 40062 082.5096 126.6031 0021292 265.6335 094.2312 12.42887375146626
Epoch (UTC): 25 September 2017 20:50:21
Eccentricity: 0.0021292
inclination: 82.5096°
perigee height: 1477 km
apogee height: 1511 km
right ascension of ascending node: 126.6031°
argument of perigee: 265.6335°
revolutions per day: 12.42887375
mean anomaly at epoch: 94.2312°
orbit number at epoch: 14662

The dashed part of the orbit path shows where the satellite is in the earth's shadow,  

DLR